| time (UTC) | temp F | wind direction | speed MPH | gust MPH | rain 1hr in | rain 24hr in | rain mn in | humidity % | barometer mb |
| 20260905175059 | 68 | 239 | 3.0 | 10.0 | 0.00 | 0.04 | 0.04 | 43 | 993.4 |
| 20260905174559 | 68 | 255 | 3.0 | 6.0 | 0.00 | 0.04 | 0.04 | 43 | 993.4 |
| 20260905174059 | 68 | 250 | 5.0 | 11.0 | 0.00 | 0.04 | 0.04 | 42 | 993.3 |
| 20260905173559 | 69 | 272 | 3.0 | 5.0 | 0.00 | 0.04 | 0.04 | 42 | 993.3 |
| 20260905173058 | 69 | 267 | 3.0 | 9.0 | 0.00 | 0.04 | 0.04 | 43 | 993.3 |
| 20260905172457 | 69 | 263 | 3.0 | 7.0 | 0.00 | 0.04 | 0.04 | 43 | 993.3 |
| 20260905171957 | 69 | 246 | 4.0 | 12.0 | 0.00 | 0.04 | 0.04 | 43 | 993.2 |
| 20260905171458 | 69 | 247 | 2.0 | 5.0 | 0.00 | 0.04 | 0.04 | 43 | 993.2 |
| 20260905170957 | 69 | 243 | 3.0 | 4.0 | 0.00 | 0.04 | 0.04 | 43 | 993.1 |
| 20260905170458 | 69 | 240 | 3.0 | 6.0 | 0.00 | 0.04 | 0.04 | 43 | 993.1 |
| 20260905165957 | 69 | 247 | 3.0 | 5.0 | 0.00 | 0.04 | 0.04 | 42 | 993.1 |
| 20260905165457 | 69 | 255 | 3.0 | 9.0 | 0.00 | 0.04 | 0.04 | 42 | 993.0 |
| 20260905164856 | 69 | 256 | 4.0 | 7.0 | 0.00 | 0.04 | 0.04 | 42 | 993.0 |
| 20260905164356 | 69 | 249 | 4.0 | 9.0 | 0.00 | 0.04 | 0.04 | 42 | 993.0 |
| 20260905163856 | 69 | 239 | 3.0 | 6.0 | 0.00 | 0.04 | 0.04 | 41 | 992.9 |
| 20260905163256 | 70 | 244 | 3.0 | 7.0 | 0.00 | 0.04 | 0.04 | 41 | 992.9 |
| 20260905162555 | 70 | 232 | 3.0 | 6.0 | 0.00 | 0.04 | 0.04 | 41 | 992.8 |
| 20260905162055 | 70 | 239 | 4.0 | 7.0 | 0.00 | 0.04 | 0.04 | 41 | 992.8 |
| 20260905161454 | 70 | 255 | 3.0 | 9.0 | 0.00 | 0.04 | 0.04 | 41 | 992.7 |
| 20260905160953 | 70 | 251 | 4.0 | 7.0 | 0.00 | 0.04 | 0.04 | 41 | 992.5 |
| 20260905160454 | 70 | 250 | 5.0 | 10.0 | 0.00 | 0.04 | 0.04 | 42 | 992.5 |
| 20260905155953 | 70 | 243 | 4.0 | 7.0 | 0.00 | 0.04 | 0.04 | 42 | 992.4 |
| 20260905155453 | 71 | 217 | 4.0 | 7.0 | 0.00 | 0.04 | 0.04 | 42 | 992.4 |
| 20260905154952 | 71 | 266 | 5.0 | 10.0 | 0.00 | 0.04 | 0.04 | 41 | 992.4 |
| 20260905154452 | 71 | 212 | 4.0 | 10.0 | 0.00 | 0.04 | 0.04 | 41 | 992.3 |
| 20260905153952 | 72 | 246 | 6.0 | 11.0 | 0.00 | 0.04 | 0.04 | 41 | 992.3 |
| 20260905153453 | 72 | 294 | 3.0 | 6.0 | 0.00 | 0.04 | 0.04 | 41 | 992.3 |
| 20260905152952 | 72 | 260 | 6.0 | 12.0 | 0.00 | 0.04 | 0.04 | 41 | 992.2 |
| 20260905152452 | 72 | 244 | 5.0 | 11.0 | 0.00 | 0.04 | 0.04 | 40 | 992.1 |
| 20260905151952 | 72 | 275 | 4.0 | 7.0 | 0.00 | 0.04 | 0.04 | 40 | 992.1 |
| 20260905151451 | 72 | 249 | 4.0 | 10.0 | 0.00 | 0.04 | 0.04 | 40 | 992.0 |
| 20260905150952 | 72 | 272 | 5.0 | 11.0 | 0.00 | 0.04 | 0.04 | 39 | 992.1 |
| 20260905150252 | 72 | 217 | 5.0 | 10.0 | 0.00 | 0.04 | 0.04 | 39 | 992.1 |
| 20260905145751 | 72 | 275 | 5.0 | 10.0 | 0.00 | 0.04 | 0.04 | 39 | 992.0 |
| 20260905145050 | 72 | 280 | 4.0 | 7.0 | 0.00 | 0.04 | 0.04 | 39 | 992.0 |
| 20260905144550 | 72 | 266 | 4.0 | 9.0 | 0.00 | 0.04 | 0.04 | 39 | 991.9 |
| 20260905144050 | 72 | 272 | 5.0 | 10.0 | 0.00 | 0.04 | 0.04 | 41 | 991.9 |
| 20260905143449 | 72 | 291 | 5.0 | 9.0 | 0.00 | 0.04 | 0.04 | 41 | 991.9 |
| 20260905142949 | 72 | 276 | 6.0 | 11.0 | 0.00 | 0.04 | 0.04 | 41 | 991.9 |
| 20260905142448 | 72 | 233 | 5.0 | 11.0 | 0.00 | 0.04 | 0.04 | 41 | 991.9 |
| 20260905141948 | 72 | 230 | 5.0 | 9.0 | 0.00 | 0.04 | 0.04 | 40 | 991.9 |
| 20260905141449 | 73 | 237 | 5.0 | 10.0 | 0.00 | 0.04 | 0.04 | 38 | 991.8 |
| 20260905140948 | 72 | 262 | 5.0 | 11.0 | 0.00 | 0.04 | 0.04 | 37 | 991.9 |
| 20260905140448 | 72 | 246 | 5.0 | 11.0 | 0.00 | 0.04 | 0.04 | 36 | 991.9 |
| 20260905135948 | 72 | 269 | 4.0 | 8.0 | 0.00 | 0.04 | 0.04 | 37 | 992.0 |
| 20260905135247 | 72 | 248 | 4.0 | 8.0 | 0.00 | 0.04 | 0.04 | 40 | 991.9 |
| 20260905134747 | 71 | 276 | 4.0 | 6.0 | 0.00 | 0.04 | 0.04 | 41 | 992.0 |
| 20260905134246 | 71 | 274 | 5.0 | 11.0 | 0.00 | 0.04 | 0.04 | 41 | 991.9 |
| 20260905133746 | 72 | 263 | 4.0 | 10.0 | 0.00 | 0.04 | 0.04 | 39 | 992.0 |
| 20260905133045 | 73 | 221 | 6.0 | 11.0 | 0.00 | 0.04 | 0.04 | 37 | 992.0 |
| 20260905132546 | 73 | 240 | 4.0 | 10.0 | 0.00 | 0.04 | 0.04 | 38 | 991.9 |
| 20260905132045 | 73 | 234 | 4.0 | 7.0 | 0.00 | 0.04 | 0.04 | 38 | 992.0 |
| 20260905131444 | 72 | 228 | 5.0 | 11.0 | 0.00 | 0.04 | 0.04 | 38 | 991.9 |
| 20260905130844 | 72 | 221 | 5.0 | 10.0 | 0.00 | 0.04 | 0.04 | 40 | 992.1 |
| 20260905130356 | 72 | 253 | 4.0 | 7.0 | 0.00 | 0.04 | 0.04 | 41 | 992.2 |
| 20260905125843 | 72 | 242 | 4.0 | 10.0 | 0.00 | 0.04 | 0.04 | 43 | 992.1 |
| 20260905125343 | 71 | 265 | 5.0 | 10.0 | 0.00 | 0.04 | 0.04 | 43 | 992.1 |
| 20260905124842 | 71 | 262 | 5.0 | 10.0 | 0.00 | 0.04 | 0.04 | 43 | 992.2 |
| 20260905124242 | 71 | 283 | 5.0 | 10.0 | 0.00 | 0.04 | 0.04 | 43 | 992.3 |
| 20260905123641 | 70 | 289 | 5.0 | 10.0 | 0.00 | 0.04 | 0.04 | 45 | 992.3 |
| 20260905123141 | 70 | 264 | 5.0 | 10.0 | 0.00 | 0.04 | 0.04 | 46 | 992.4 |
| 20260905122540 | 70 | 262 | 6.0 | 11.0 | 0.00 | 0.04 | 0.04 | 46 | 992.4 |
| 20260905122040 | 70 | 290 | 4.0 | 6.0 | 0.00 | 0.04 | 0.04 | 48 | 992.3 |
| 20260905121540 | 71 | 273 | 4.0 | 7.0 | 0.00 | 0.04 | 0.04 | 47 | 992.4 |
| 20260905121042 | 71 | 245 | 4.0 | 10.0 | 0.00 | 0.04 | 0.04 | 46 | 992.5 |
| 20260905120539 | 71 | 227 | 5.0 | 11.0 | 0.00 | 0.04 | 0.04 | 46 | 992.4 |
| 20260905120039 | 70 | 275 | 4.0 | 10.0 | 0.00 | 0.04 | 0.04 | 47 | 992.4 |
| 20260905115539 | 70 | 217 | 6.0 | 12.0 | 0.00 | 0.04 | 0.04 | 48 | 992.4 |
| 20260905115039 | 70 | 275 | 5.0 | 10.0 | 0.00 | 0.04 | 0.04 | 48 | 992.5 |
| 20260905114538 | 69 | 264 | 4.0 | 11.0 | 0.00 | 0.04 | 0.04 | 49 | 992.4 |
| 20260905113938 | 70 | 291 | 3.0 | 11.0 | 0.00 | 0.04 | 0.04 | 49 | 992.4 |
| 20260905113337 | 70 | 246 | 5.0 | 10.0 | 0.00 | 0.04 | 0.04 | 48 | 992.5 |
| 20260905112838 | 70 | 257 | 4.0 | 10.0 | 0.00 | 0.04 | 0.04 | 49 | 992.4 |
| 20260905112337 | 70 | 298 | 3.0 | 5.0 | 0.00 | 0.04 | 0.04 | 50 | 992.4 |
| 20260905111837 | 69 | 261 | 5.0 | 9.0 | 0.00 | 0.04 | 0.04 | 51 | 992.5 |
| 20260905111337 | 69 | 227 | 5.0 | 11.0 | 0.00 | 0.04 | 0.04 | 50 | 992.5 |
| 20260905110837 | 69 | 266 | 5.0 | 10.0 | 0.00 | 0.04 | 0.04 | 51 | 992.5 |
| 20260905110337 | 69 | 291 | 4.0 | 7.0 | 0.00 | 0.04 | 0.04 | 54 | 992.4 |
| 20260905105837 | 69 | 278 | 5.0 | 9.0 | 0.00 | 0.04 | 0.04 | 54 | 992.5 |
| 20260905105236 | 69 | 269 | 5.0 | 10.0 | 0.00 | 0.04 | 0.04 | 52 | 992.4 |
| 20260905104736 | 69 | 268 | 5.0 | 10.0 | 0.00 | 0.04 | 0.04 | 52 | 992.4 |
| 20260905104136 | 69 | 265 | 4.0 | 7.0 | 0.00 | 0.04 | 0.04 | 52 | 992.4 |
| 20260905103636 | 69 | 251 | 4.0 | 9.0 | 0.00 | 0.04 | 0.04 | 53 | 992.4 |
| 20260905103136 | 69 | 274 | 5.0 | 11.0 | 0.00 | 0.04 | 0.04 | 52 | 992.4 |
| 20260905102635 | 68 | 227 | 5.0 | 12.0 | 0.00 | 0.04 | 0.04 | 53 | 992.4 |
| 20260905102135 | 69 | 247 | 5.0 | 11.0 | 0.00 | 0.04 | 0.04 | 53 | 992.4 |
| 20260905101434 | 68 | 245 | 6.0 | 12.0 | 0.00 | 0.04 | 0.04 | 53 | 992.4 |
| 20260905100833 | 69 | 238 | 5.0 | 10.0 | 0.00 | 0.04 | 0.04 | 54 | 992.4 |
| 20260905100333 | 68 | 245 | 5.0 | 9.0 | 0.00 | 0.04 | 0.04 | 54 | 992.3 |
| 20260905095732 | 68 | 235 | 5.0 | 10.0 | 0.00 | 0.04 | 0.04 | 55 | 992.3 |
| 20260905095232 | 67 | 244 | 4.0 | 9.0 | 0.00 | 0.04 | 0.04 | 57 | 992.3 |
| 20260905094732 | 67 | 249 | 4.0 | 10.0 | 0.00 | 0.04 | 0.04 | 56 | 992.4 |
| 20260905094232 | 67 | 232 | 5.0 | 10.0 | 0.00 | 0.04 | 0.04 | 55 | 992.4 |
| 20260905093732 | 67 | 232 | 4.0 | 7.0 | 0.00 | 0.04 | 0.04 | 59 | 992.5 |
| 20260905093232 | 66 | 239 | 5.0 | 7.0 | 0.00 | 0.04 | 0.04 | 62 | 992.4 |
| 20260905092732 | 66 | 253 | 5.0 | 12.0 | 0.00 | 0.04 | 0.04 | 61 | 992.4 |
| 20260905092231 | 66 | 254 | 4.0 | 10.0 | 0.00 | 0.04 | 0.04 | 61 | 992.5 |
| 20260905091429 | 66 | 234 | 4.0 | 10.0 | 0.00 | 0.04 | 0.04 | 62 | 992.6 |
| 20260905090829 | 66 | 236 | 5.0 | 10.0 | 0.00 | 0.04 | 0.04 | 60 | 992.5 |
| 20260905090329 | 67 | 230 | 4.0 | 9.0 | 0.00 | 0.04 | 0.04 | 59 | 992.4 |
| 20260905085829 | 67 | 257 | 5.0 | 9.0 | 0.00 | 0.04 | 0.04 | 58 | 992.4 |
| 20260905085328 | 66 | 238 | 5.0 | 10.0 | 0.00 | 0.04 | 0.04 | 59 | 992.4 |
| 20260905084828 | 66 | 256 | 4.0 | 10.0 | 0.00 | 0.04 | 0.04 | 61 | 992.4 |
| 20260905084328 | 65 | 249 | 5.0 | 10.0 | 0.00 | 0.04 | 0.04 | 63 | 992.3 |
| 20260905083828 | 65 | 277 | 4.0 | 10.0 | 0.00 | 0.04 | 0.04 | 63 | 992.3 |
| 20260905083328 | 65 | 286 | 5.0 | 11.0 | 0.00 | 0.04 | 0.04 | 64 | 992.1 |
| 20260905082827 | 65 | 232 | 3.0 | 6.0 | 0.00 | 0.04 | 0.04 | 65 | 992.1 |
| 20260905082327 | 65 | 237 | 5.0 | 11.0 | 0.00 | 0.04 | 0.04 | 66 | 992.1 |
| 20260905081827 | 65 | 252 | 5.0 | 10.0 | 0.00 | 0.04 | 0.04 | 67 | 992.2 |
| 20260905081327 | 64 | 231 | 4.0 | 7.0 | 0.00 | 0.04 | 0.04 | 68 | 992.2 |
| 20260905080727 | 63 | 253 | 2.0 | 6.0 | 0.00 | 0.04 | 0.04 | 71 | 992.3 |
| 20260905080126 | 63 | 240 | 4.0 | 8.0 | 0.00 | 0.04 | 0.04 | 72 | 992.3 |
| 20260905075626 | 63 | 250 | 4.0 | 6.0 | 0.00 | 0.04 | 0.04 | 73 | 992.3 |
| 20260905075126 | 63 | 250 | 3.0 | 6.0 | 0.00 | 0.04 | 0.04 | 73 | 992.3 |
| 20260905074626 | 62 | 256 | 3.0 | 6.0 | 0.00 | 0.04 | 0.04 | 75 | 992.4 |
| 20260905074125 | 62 | 228 | 3.0 | 5.0 | 0.00 | 0.04 | 0.04 | 76 | 992.3 |
| 20260905073633 | 61 | 237 | 2.0 | 8.0 | 0.00 | 0.04 | 0.04 | 77 | 992.3 |
| 20260905073125 | 61 | 226 | 2.0 | 4.0 | 0.00 | 0.04 | 0.04 | 79 | 992.2 |
| 20260905072625 | 61 | 245 | 3.0 | 6.0 | 0.00 | 0.04 | 0.04 | 80 | 992.2 |
| 20260905072125 | 61 | 238 | 3.0 | 7.0 | 0.00 | 0.04 | 0.04 | 79 | 992.2 |
| 20260905071625 | 61 | 239 | 3.0 | 7.0 | 0.00 | 0.04 | 0.04 | 78 | 992.2 |
| 20260905071125 | 61 | 253 | 2.0 | 4.0 | 0.00 | 0.04 | 0.04 | 78 | 992.2 |
| 20260905070625 | 61 | 244 | 3.0 | 6.0 | 0.00 | 0.04 | 0.04 | 77 | 992.2 |
| 20260905070125 | 61 | 254 | 2.0 | 3.0 | 0.00 | 0.04 | 0.04 | 76 | 992.1 |
| 20260905065524 | 60 | 242 | 3.0 | 6.0 | 0.00 | 0.04 | 0.04 | 76 | 992.0 |
| 20260905065024 | 60 | 243 | 2.0 | 5.0 | 0.00 | 0.04 | 0.04 | 76 | 991.9 |
| 20260905064423 | 60 | 247 | 3.0 | 5.0 | 0.00 | 0.04 | 0.04 | 76 | 991.7 |
| 20260905063923 | 60 | 263 | 2.0 | 6.0 | 0.00 | 0.04 | 0.04 | 76 | 991.8 |
| 20260905063423 | 60 | 248 | 2.0 | 4.0 | 0.00 | 0.04 | 0.04 | 77 | 991.8 |
| 20260905062923 | 60 | 262 | 2.0 | 5.0 | 0.00 | 0.04 | 0.04 | 78 | 991.8 |
| 20260905062422 | 60 | 234 | 3.0 | 4.0 | 0.00 | 0.04 | 0.04 | 79 | 991.7 |
| 20260905061922 | 60 | 231 | 2.0 | 4.0 | 0.00 | 0.04 | 0.04 | 79 | 991.6 |
| 20260905061422 | 60 | 241 | 2.0 | 5.0 | 0.00 | 0.04 | 0.04 | 79 | 991.6 |
| 20260905060821 | 60 | 237 | 1.0 | 3.0 | 0.00 | 0.04 | 0.04 | 79 | 991.4 |
| 20260905060220 | 60 | 220 | 1.0 | 3.0 | 0.00 | 0.04 | 0.04 | 78 | 991.4 |
| 20260905055720 | 60 | 239 | 2.0 | 5.0 | 0.00 | 0.04 | 0.04 | 78 | 991.5 |
| 20260905055220 | 60 | 244 | 2.0 | 4.0 | 0.00 | 0.04 | 0.04 | 78 | 991.4 |
| 20260905054720 | 60 | 252 | 2.0 | 4.0 | 0.00 | 0.04 | 0.04 | 77 | 991.3 |
| 20260905054220 | 60 | 244 | 1.0 | 3.0 | 0.00 | 0.04 | 0.04 | 77 | 991.3 |
| 20260905053619 | 60 | 256 | 2.0 | 4.0 | 0.00 | 0.04 | 0.04 | 77 | 991.2 |
| 20260905053119 | 60 | 252 | 2.0 | 3.0 | 0.00 | 0.04 | 0.04 | 77 | 991.2 |
| 20260905052619 | 60 | 246 | 2.0 | 4.0 | 0.00 | 0.04 | 0.04 | 76 | 990.7 |
| 20260905052119 | 60 | 219 | 2.0 | 4.0 | 0.00 | 0.04 | 0.04 | 77 | 990.7 |
| 20260905051618 | 60 | 245 | 3.0 | 5.0 | 0.00 | 0.04 | 0.04 | 77 | 991.0 |
| 20260905051118 | 60 | 264 | 1.0 | 4.0 | 0.00 | 0.04 | 0.04 | 77 | 991.0 |
| 20260905050618 | 60 | 250 | 2.0 | 4.0 | 0.00 | 0.04 | 0.04 | 76 | 991.1 |
| 20260905050118 | 60 | 241 | 2.0 | 4.0 | 0.00 | 0.04 | 0.04 | 77 | 991.0 |
| 20260905045618 | 60 | 290 | 2.0 | 6.0 | 0.01 | 0.04 | 0.04 | 76 | 991.1 |
| 20260905045017 | 61 | 278 | 3.0 | 7.0 | 0.01 | 0.04 | 0.04 | 74 | 991.1 |
| 20260905044417 | 61 | 271 | 2.0 | 4.0 | 0.01 | 0.04 | 0.04 | 73 | 990.5 |
| 20260905043916 | 61 | 236 | 3.0 | 6.0 | 0.01 | 0.04 | 0.04 | 73 | 990.2 |
| 20260905043416 | 61 | 237 | 3.0 | 5.0 | 0.01 | 0.04 | 0.04 | 74 | 990.2 |
| 20260905042916 | 61 | 262 | 2.0 | 5.0 | 0.01 | 0.04 | 0.04 | 74 | 990.4 |
| 20260905042416 | 61 | 266 | 2.0 | 5.0 | 0.01 | 0.04 | 0.04 | 74 | 990.3 |
| 20260905041916 | 61 | 241 | 2.0 | 4.0 | 0.01 | 0.04 | 0.04 | 75 | 990.2 |
| 20260905041416 | 61 | 257 | 3.0 | 6.0 | 0.01 | 0.04 | 0.04 | 75 | 990.2 |
| 20260905040915 | 61 | 269 | 2.0 | 6.0 | 0.01 | 0.04 | 0.04 | 76 | 990.1 |
| 20260905040415 | 61 | 258 | 3.0 | 7.0 | 0.01 | 0.04 | 0.04 | 76 | 990.3 |
| 20260905035915 | 62 | 234 | 3.0 | 7.0 | 0.01 | 0.04 | 0.04 | 77 | 990.2 |
| 20260905035415 | 62 | 252 | 2.0 | 4.0 | 0.00 | 0.03 | 0.03 | 77 | 990.2 |
| 20260905034915 | 62 | 273 | 2.0 | 4.0 | 0.00 | 0.03 | 0.03 | 76 | 990.2 |
| 20260905034415 | 62 | 230 | 4.0 | 6.0 | 0.00 | 0.03 | 0.03 | 76 | 989.7 |
| 20260905033915 | 62 | 228 | 4.0 | 7.0 | 0.00 | 0.03 | 0.03 | 76 | 989.7 |
| 20260905033415 | 62 | 229 | 3.0 | 6.0 | 0.00 | 0.03 | 0.03 | 78 | 989.7 |
| 20260905032914 | 62 | 232 | 2.0 | 5.0 | 0.00 | 0.03 | 0.03 | 79 | 989.6 |
| 20260905032414 | 61 | 264 | 2.0 | 6.0 | 0.00 | 0.03 | 0.03 | 80 | 989.5 |
| 20260905031914 | 61 | 240 | 2.0 | 4.0 | 0.00 | 0.03 | 0.03 | 81 | 989.5 |
| 20260905031414 | 62 | 250 | 1.0 | 4.0 | 0.00 | 0.03 | 0.03 | 81 | 989.5 |
| 20260905030914 | 61 | 240 | 2.0 | 4.0 | 0.00 | 0.03 | 0.03 | 81 | 989.4 |
| 20260905030414 | 61 | 226 | 1.0 | 3.0 | 0.00 | 0.03 | 0.03 | 82 | 989.2 |
| 20260905025713 | 61 | 255 | 1.0 | 4.0 | 0.00 | 0.03 | 0.03 | 82 | 989.3 |
| 20260905025213 | 61 | 198 | 1.0 | 3.0 | 0.00 | 0.03 | 0.03 | 81 | 989.2 |
| 20260905024512 | 62 | 222 | 1.0 | 2.0 | 0.00 | 0.03 | 0.03 | 81 | 988.8 |
| 20260905023911 | 62 | 223 | 1.0 | 4.0 | 0.00 | 0.03 | 0.03 | 81 | 989.1 |
| 20260905023411 | 62 | 206 | 1.0 | 2.0 | 0.00 | 0.03 | 0.03 | 80 | 989.0 |
| 20260905022911 | 62 | 208 | 2.0 | 3.0 | 0.00 | 0.03 | 0.03 | 80 | 989.1 |
| 20260905022411 | 62 | 210 | 1.0 | 3.0 | 0.00 | 0.03 | 0.03 | 80 | 989.1 |
| 20260905021910 | 62 | 237 | 2.0 | 5.0 | 0.00 | 0.03 | 0.03 | 79 | 989.2 |
| 20260905021410 | 62 | 277 | 1.0 | 4.0 | 0.00 | 0.03 | 0.03 | 80 | 989.3 |
| 20260905020808 | 62 | 303 | 1.0 | 3.0 | 0.00 | 0.03 | 0.03 | 80 | 989.3 |
| 20260905020309 | 62 | 302 | 4.0 | 8.0 | 0.00 | 0.03 | 0.03 | 79 | 989.3 |
| 20260905015809 | 62 | 258 | 3.0 | 7.0 | 0.00 | 0.03 | 0.03 | 81 | 989.8 |
| 20260905015208 | 62 | 276 | 2.0 | 5.0 | 0.00 | 0.03 | 0.03 | 81 | 989.6 |
| 20260905014607 | 62 | 254 | 2.0 | 4.0 | 0.01 | 0.03 | 0.03 | 82 | 989.4 |
| 20260905014107 | 62 | 264 | 2.0 | 6.0 | 0.01 | 0.03 | 0.03 | 82 | 989.3 |
| 20260905013607 | 62 | 287 | 1.0 | 3.0 | 0.03 | 0.03 | 0.03 | 82 | 989.3 |
| 20260905013107 | 62 | 273 | 1.0 | 2.0 | 0.03 | 0.03 | 0.03 | 83 | 989.2 |
| 20260905012607 | 62 | 305 | 0.0 | 2.0 | 0.03 | 0.03 | 0.03 | 83 | 989.1 |
| 20260905012107 | 62 | 308 | 0.0 | 0.0 | 0.03 | 0.03 | 0.03 | 82 | 988.9 |
| 20260905011607 | 62 | 255 | 1.0 | 3.0 | 0.03 | 0.03 | 0.03 | 82 | 988.8 |
| 20260905011106 | 62 | 244 | 1.0 | 2.0 | 0.03 | 0.03 | 0.03 | 81 | 988.8 |
| 20260905010606 | 62 | 299 | 1.0 | 4.0 | 0.03 | 0.03 | 0.03 | 81 | 988.9 |
| 20260905010106 | 62 | 264 | 2.0 | 4.0 | 0.03 | 0.03 | 0.03 | 81 | 988.9 |
| 20260905005605 | 62 | 232 | 2.0 | 4.0 | 0.03 | 0.03 | 0.03 | 81 | 988.9 |
| 20260905005105 | 62 | 265 | 3.0 | 6.0 | 0.03 | 0.03 | 0.03 | 79 | 988.9 |
| 20260905004606 | 62 | 259 | 3.0 | 8.0 | 0.02 | 0.02 | 0.02 | 78 | 989.0 |
| 20260905004105 | 63 | 281 | 3.0 | 7.0 | 0.02 | 0.02 | 0.02 | 75 | 989.0 |
| 20260905003605 | 65 | 287 | 3.0 | 6.0 | 0.00 | 0.00 | 0.00 | 71 | 988.9 |
| 20260905003105 | 65 | 272 | 2.0 | 6.0 | 0.00 | 0.00 | 0.00 | 69 | 988.9 |
| 20260905002504 | 65 | 307 | 4.0 | 8.0 | 0.00 | 0.00 | 0.00 | 69 | 988.3 |
| 20260905001904 | 65 | 313 | 3.0 | 6.0 | 0.00 | 0.00 | 0.00 | 68 | 988.6 |
| 20260905001403 | 65 | 320 | 2.0 | 4.0 | 0.00 | 0.00 | 0.00 | 67 | 988.7 |
| 20260905000803 | 65 | 281 | 3.0 | 6.0 | 0.00 | 0.00 | 0.00 | 67 | 988.3 |
| 20260905000303 | 66 | 340 | 4.0 | 9.0 | 0.00 | 0.00 | 0.00 | 65 | 988.3 |
| 20260904235802 | 66 | 286 | 3.0 | 5.0 | 0.00 | 0.00 | 0.00 | 65 | 988.6 |
| 20260904235305 | 66 | 292 | 3.0 | 7.0 | 0.00 | 0.00 | 0.00 | 64 | 988.3 |
| 20260904234802 | 66 | 294 | 5.0 | 10.0 | 0.00 | 0.00 | 0.00 | 64 | 988.3 |
| 20260904234302 | 66 | 301 | 5.0 | 10.0 | 0.00 | 0.00 | 0.00 | 63 | 988.3 |
| 20260904233701 | 66 | 234 | 3.0 | 5.0 | 0.00 | 0.00 | 0.00 | 63 | 988.0 |
| 20260904233201 | 67 | 294 | 3.0 | 7.0 | 0.00 | 0.00 | 0.00 | 63 | 988.0 |
| 20260904232701 | 67 | 281 | 4.0 | 10.0 | 0.00 | 0.00 | 0.00 | 63 | 988.3 |
| 20260904232000 | 67 | 301 | 5.0 | 10.0 | 0.00 | 0.00 | 0.00 | 62 | 988.1 |
| 20260904231500 | 67 | 289 | 4.0 | 9.0 | 0.00 | 0.00 | 0.00 | 61 | 988.1 |
| 20260904230959 | 68 | 299 | 5.0 | 10.0 | 0.00 | 0.00 | 0.00 | 61 | 987.9 |
| 20260904230459 | 68 | 290 | 4.0 | 10.0 | 0.00 | 0.00 | 0.00 | 61 | 987.9 |
| 20260904225958 | 68 | 313 | 3.0 | 8.0 | 0.00 | 0.00 | 0.00 | 60 | 987.7 |
| 20260904225458 | 68 | 301 | 5.0 | 10.0 | 0.00 | 0.00 | 0.00 | 60 | 987.7 |
| 20260904224958 | 68 | 306 | 5.0 | 9.0 | 0.00 | 0.00 | 0.00 | 59 | 987.6 |
| 20260904224458 | 68 | 270 | 3.0 | 6.0 | 0.00 | 0.00 | 0.00 | 58 | 987.8 |
| 20260904223958 | 69 | 317 | 6.0 | 12.0 | 0.00 | 0.00 | 0.00 | 58 | 987.6 |
| 20260904223458 | 69 | 288 | 5.0 | 12.0 | 0.00 | 0.00 | 0.00 | 57 | 987.5 |
| 20260904222958 | 69 | 311 | 6.0 | 11.0 | 0.00 | 0.00 | 0.00 | 57 | 987.4 |
| 20260904222458 | 69 | 328 | 4.0 | 11.0 | 0.00 | 0.00 | 0.00 | 57 | 987.3 |
| 20260904221958 | 70 | 295 | 5.0 | 11.0 | 0.00 | 0.00 | 0.00 | 60 | 987.2 |
| 20260904221458 | 70 | 286 | 4.0 | 10.0 | 0.00 | 0.00 | 0.00 | 63 | 987.0 |
| 20260904220958 | 70 | 305 | 6.0 | 11.0 | 0.00 | 0.00 | 0.00 | 63 | 986.7 |
| 20260904220458 | 71 | 298 | 6.0 | 11.0 | 0.00 | 0.00 | 0.00 | 63 | 986.6 |
| 20260904215857 | 71 | 290 | 5.0 | 10.0 | 0.00 | 0.00 | 0.00 | 62 | 986.6 |
| 20260904215357 | 72 | 294 | 5.0 | 11.0 | 0.00 | 0.00 | 0.00 | 62 | 986.6 |
| 20260904214757 | 72 | 299 | 6.0 | 13.0 | 0.00 | 0.00 | 0.00 | 61 | 986.3 |
| 20260904214257 | 72 | 272 | 5.0 | 9.0 | 0.00 | 0.00 | 0.00 | 60 | 986.2 |
| 20260904213757 | 73 | 285 | 3.0 | 7.0 | 0.00 | 0.00 | 0.00 | 60 | 986.0 |
| 20260904213256 | 73 | 302 | 3.0 | 6.0 | 0.00 | 0.00 | 0.00 | 59 | 986.0 |
| 20260904212756 | 74 | 306 | 4.0 | 10.0 | 0.00 | 0.00 | 0.00 | 58 | 985.9 |
| 20260904212256 | 75 | 271 | 4.0 | 10.0 | 0.00 | 0.00 | 0.00 | 56 | 985.8 |
| 20260904211756 | 75 | 283 | 4.0 | 8.0 | 0.00 | 0.00 | 0.00 | 54 | 985.6 |
| 20260904211256 | 75 | 254 | 4.0 | 7.0 | 0.00 | 0.00 | 0.00 | 54 | 985.0 |
| 20260904210756 | 75 | 189 | 3.0 | 6.0 | 0.00 | 0.00 | 0.00 | 55 | 984.5 |
| 20260904210256 | 75 | 236 | 3.0 | 7.0 | 0.00 | 0.00 | 0.00 | 55 | 984.5 |
| 20260904205756 | 74 | 212 | 5.0 | 10.0 | 0.00 | 0.00 | 0.00 | 55 | 984.4 |
| 20260904205256 | 74 | 198 | 4.0 | 6.0 | 0.00 | 0.00 | 0.00 | 55 | 984.6 |
| 20260904204756 | 74 | 208 | 3.0 | 7.0 | 0.00 | 0.00 | 0.00 | 56 | 984.7 |
| 20260904204255 | 74 | 194 | 4.0 | 7.0 | 0.00 | 0.00 | 0.00 | 56 | 984.7 |
| 20260904203655 | 74 | 194 | 4.0 | 8.0 | 0.00 | 0.00 | 0.00 | 56 | 984.5 |
| 20260904203155 | 74 | 195 | 4.0 | 7.0 | 0.00 | 0.00 | 0.00 | 56 | 984.6 |
| 20260904202654 | 74 | 192 | 4.0 | 9.0 | 0.00 | 0.00 | 0.00 | 55 | 984.6 |
| 20260904202153 | 74 | 202 | 4.0 | 6.0 | 0.00 | 0.00 | 0.00 | 55 | 984.5 |
| 20260904201654 | 74 | 200 | 4.0 | 9.0 | 0.00 | 0.00 | 0.00 | 55 | 984.6 |
| 20260904201154 | 74 | 202 | 3.0 | 9.0 | 0.00 | 0.00 | 0.00 | 56 | 984.7 |
| 20260904200653 | 73 | 200 | 2.0 | 4.0 | 0.00 | 0.00 | 0.00 | 57 | 984.7 |
| 20260904200053 | 73 | 230 | 2.0 | 4.0 | 0.00 | 0.00 | 0.00 | 59 | 984.8 |
| 20260904195552 | 73 | 191 | 2.0 | 4.0 | 0.00 | 0.00 | 0.00 | 59 | 984.8 |
| 20260904195052 | 73 | 214 | 3.0 | 6.0 | 0.00 | 0.00 | 0.00 | 59 | 984.8 |
| 20260904194552 | 73 | 202 | 3.0 | 7.0 | 0.00 | 0.00 | 0.00 | 59 | 984.8 |
| 20260904193951 | 73 | 189 | 3.0 | 5.0 | 0.00 | 0.00 | 0.00 | 59 | 984.9 |
| 20260904193351 | 73 | 199 | 3.0 | 4.0 | 0.00 | 0.00 | 0.00 | 59 | 985.0 |
| 20260904192850 | 74 | 205 | 3.0 | 6.0 | 0.00 | 0.00 | 0.00 | 58 | 985.0 |
| 20260904192351 | 74 | 211 | 4.0 | 7.0 | 0.00 | 0.00 | 0.00 | 58 | 985.0 |
| 20260904191850 | 74 | 187 | 3.0 | 7.0 | 0.00 | 0.00 | 0.00 | 58 | 985.0 |
| 20260904191350 | 74 | 180 | 3.0 | 6.0 | 0.00 | 0.00 | 0.00 | 58 | 985.0 |
| 20260904190850 | 74 | 211 | 4.0 | 6.0 | 0.00 | 0.00 | 0.00 | 58 | 985.1 |
| 20260904190349 | 74 | 204 | 4.0 | 9.0 | 0.00 | 0.00 | 0.00 | 57 | 985.2 |
| 20260904185850 | 74 | 195 | 4.0 | 6.0 | 0.00 | 0.00 | 0.00 | 57 | 985.3 |
| 20260904185350 | 74 | 203 | 4.0 | 6.0 | 0.00 | 0.00 | 0.00 | 57 | 985.3 |
| 20260904184849 | 74 | 197 | 3.0 | 6.0 | 0.00 | 0.00 | 0.00 | 58 | 985.3 |
| 20260904184248 | 74 | 196 | 2.0 | 4.0 | 0.00 | 0.00 | 0.00 | 59 | 985.4 |
| 20260904183748 | 74 | 180 | 3.0 | 6.0 | 0.00 | 0.00 | 0.00 | 59 | 985.5 |
| 20260904183248 | 74 | 195 | 2.0 | 4.0 | 0.00 | 0.00 | 0.00 | 60 | 985.5 |
| 20260904182748 | 74 | 201 | 2.0 | 4.0 | 0.00 | 0.00 | 0.00 | 60 | 985.7 |
| 20260904182248 | 74 | 203 | 2.0 | 3.0 | 0.00 | 0.00 | 0.00 | 60 | 985.8 |
| 20260904181748 | 74 | 209 | 2.0 | 4.0 | 0.00 | 0.00 | 0.00 | 59 | 985.9 |
| 20260904181248 | 74 | 196 | 2.0 | 4.0 | 0.00 | 0.00 | 0.00 | 59 | 985.9 |
| 20260904180748 | 74 | 189 | 2.0 | 4.0 | 0.00 | 0.00 | 0.00 | 58 | 986.0 |
| 20260904180047 | 75 | 201 | 3.0 | 5.0 | 0.00 | 0.00 | 0.00 | 57 | 986.0 |
| 20260904175547 | 75 | 193 | 2.0 | 4.0 | 0.00 | 0.00 | 0.00 | 57 | 985.9 |